Data No,UTC Date,UTC Time,Latitude,Longitude,Course(deg),Sal(psu),Fluor Int,Blank
80,2005/3/3,1:25:00, 11-02.733N,100-00.020E,92.2,32.3007,173,163
81,2005/3/3,1:26:00, 11-02.719N,100-00.239E,91,32.2975,172,163
82,2005/3/3,1:27:00, 11-02.706N,100-00.458E,94.3,32.2947,173,163
83,2005/3/3,1:28:00, 11-02.693N,100-00.677E,92.2,32.2927,173,163
84,2005/3/3,1:29:00, 11-02.681N,100-00.896E,92.5,32.2916,174,163
85,2005/3/3,1:30:00, 11-02.640N,100-01.108E,120.3,32.2911,172,163
86,2005/3/3,1:31:00, 11-02.518N,100-01.276E,126.9,32.2905,173,163
87,2005/3/3,1:32:00, 11-02.386N,100-01.443E,128.5,32.2897,174,163
88,2005/3/3,1:33:00, 11-02.255N,100-01.612E,128.1,32.2869,175,163
89,2005/3/3,1:34:00, 11-02.122N,100-01.781E,127.6,32.2823,175,163
90,2005/3/3,1:35:00, 11-01.989N,100-01.949E,129.9,32.2788,177,163
91,2005/3/3,1:36:00, 11-01.858N,100-02.120E,127.1,32.2764,174,163
92,2005/3/3,1:37:00, 11-01.725N,100-02.288E,127.9,32.2726,174,163
93,2005/3/3,1:38:00, 11-01.593N,100-02.458E,128.5,32.2697,175,163
94,2005/3/3,1:39:00, 11-01.459N,100-02.628E,128.9,32.2676,178,163
95,2005/3/3,1:40:00, 11-01.327N,100-02.798E,128.7,32.2641,175,163
96,2005/3/3,1:41:00, 11-01.195N,100-02.968E,127.2,32.2623,172,163
97,2005/3/3,1:42:00, 11-01.062N,100-03.137E,127.4,32.2604,173,163
98,2005/3/3,1:43:00, 11-00.930N,100-03.307E,129.3,32.259,172,163
99,2005/3/3,1:44:00, 11-00.797N,100-03.476E,128.2,32.2564,172,163
100,2005/3/3,1:45:00, 11-00.665N,100-03.646E,128.2,32.2537,175,163
101,2005/3/3,1:46:00, 11-00.534N,100-03.818E,127.6,32.2506,170,163
102,2005/3/3,1:47:00, 11-00.403N,100-03.987E,128.2,32.2467,178,163
103,2005/3/3,1:48:00, 11-00.269N,100-04.156E,129.4,32.2426,169,163
104,2005/3/3,1:49:00, 11-00.137N,100-04.326E,129.1,32.24,177,163
105,2005/3/3,1:50:00, 11-00.004N,100-04.497E,128.5,32.2375,171,163
106,2005/3/3,1:51:00, 10-59.871N,100-04.667E,128.1,32.233,174,163
107,2005/3/3,1:52:00, 10-59.739N,100-04.839E,127.4,32.2289,172,163
108,2005/3/3,1:53:00, 10-59.608N,100-05.010E,129.4,32.2261,172,163
109,2005/3/3,1:54:00, 10-59.474N,100-05.180E,127.8,32.2223,171,163
110,2005/3/3,1:55:00, 10-59.343N,100-05.350E,127.8,32.2161,172,163
111,2005/3/3,1:56:00, 10-59.211N,100-05.520E,129.2,32.2116,169,163
112,2005/3/3,1:57:00, 10-59.079N,100-05.691E,127.5,32.2069,172,163
113,2005/3/3,1:58:00, 10-58.945N,100-05.861E,127.5,32.203,171,163
114,2005/3/3,1:59:00, 10-58.812N,100-06.032E,127.7,32.2002,171,163
115,2005/3/3,2:00:00, 10-58.679N,100-06.203E,128.8,32.2004,172,163
116,2005/3/3,2:01:00, 10-58.547N,100-06.373E,127.5,32.2005,171,163
117,2005/3/3,2:02:00, 10-58.415N,100-06.543E,127,32.1994,170,163
118,2005/3/3,2:03:00, 10-58.283N,100-06.713E,126.8,32.2001,170,163
119,2005/3/3,2:04:00, 10-58.150N,100-06.883E,127.8,32.2013,172,163
120,2005/3/3,2:05:00, 10-58.018N,100-07.054E,129.2,32.2024,172,163
121,2005/3/3,2:06:00, 10-57.885N,100-07.223E,128.6,32.2044,169,163
122,2005/3/3,2:07:00, 10-57.754N,100-07.394E,127.9,32.2064,169,163
123,2005/3/3,2:08:00, 10-57.620N,100-07.564E,127.6,32.2093,171,163
124,2005/3/3,2:09:00, 10-57.488N,100-07.735E,128,32.2112,173,163
125,2005/3/3,2:10:00, 10-57.355N,100-07.905E,128.4,32.2108,174,163
126,2005/3/3,2:11:00, 10-57.222N,100-08.074E,129.2,32.2102,173,163
127,2005/3/3,2:12:00, 10-57.089N,100-08.244E,129.3,32.2082,172,163
128,2005/3/3,2:13:00, 10-56.956N,100-08.414E,128.7,32.2061,171,163
129,2005/3/3,2:14:00, 10-56.823N,100-08.583E,127.6,32.2042,171,163
130,2005/3/3,2:15:00, 10-56.689N,100-08.753E,127.8,32.2018,175,163
131,2005/3/3,2:16:00, 10-56.557N,100-08.923E,128.3,32.202,170,163
132,2005/3/3,2:17:00, 10-56.424N,100-09.092E,129.1,32.2009,171,163
133,2005/3/3,2:18:00, 10-56.292N,100-09.262E,128,32.2009,172,163
134,2005/3/3,2:19:00, 10-56.158N,100-09.431E,127.1,32.2011,173,163
135,2005/3/3,2:20:00, 10-56.024N,100-09.599E,128.5,32.2027,172,163
136,2005/3/3,2:21:00, 10-55.890N,100-09.767E,128,32.2044,171,163
137,2005/3/3,2:22:00, 10-55.757N,100-09.937E,128.5,32.2036,172,163
138,2005/3/3,2:23:00, 10-55.625N,100-10.107E,128.8,32.204,171,163
139,2005/3/3,2:24:00, 10-55.492N,100-10.276E,128.5,32.2038,174,163
140,2005/3/3,2:25:00, 10-55.359N,100-10.444E,129.2,32.2062,173,163
141,2005/3/3,2:26:00, 10-55.224N,100-10.613E,129.2,32.2084,173,163
142,2005/3/3,2:27:00, 10-55.091N,100-10.779E,127,32.2095,176,163
143,2005/3/3,2:28:00, 10-54.957N,100-10.949E,127.6,32.2099,175,163
144,2005/3/3,2:29:00, 10-54.824N,100-11.117E,128,32.211,170,163
145,2005/3/3,2:30:00, 10-54.690N,100-11.288E,127.8,32.2116,169,163
146,2005/3/3,2:31:00, 10-54.557N,100-11.456E,127.7,32.2128,170,163
147,2005/3/3,2:32:00, 10-54.422N,100-11.625E,129.2,32.2141,176,163
148,2005/3/3,2:33:00, 10-54.285N,100-11.796E,128.3,32.2146,172,163
149,2005/3/3,2:34:00, 10-54.152N,100-11.967E,128.9,32.2163,170,163
150,2005/3/3,2:35:00, 10-54.016N,100-12.137E,126.5,32.2166,168,163
151,2005/3/3,2:36:00, 10-53.882N,100-12.306E,127.8,32.2165,173,163
152,2005/3/3,2:37:00, 10-53.747N,100-12.475E,127.8,32.2156,172,163
153,2005/3/3,2:38:00, 10-53.613N,100-12.645E,129.1,32.2153,169,163
154,2005/3/3,2:39:00, 10-53.481N,100-12.816E,127.9,32.2143,171,163
155,2005/3/3,2:40:00, 10-53.347N,100-12.986E,127.8,32.2131,165,163
156,2005/3/3,2:41:00, 10-53.213N,100-13.156E,128.1,32.2121,167,163
157,2005/3/3,2:42:00, 10-53.078N,100-13.325E,127.1,32.2113,167,163
158,2005/3/3,2:43:00, 10-52.943N,100-13.494E,128.4,32.2079,171,163
159,2005/3/3,2:44:00, 10-52.810N,100-13.663E,127.5,32.2061,169,163
160,2005/3/3,2:45:00, 10-52.675N,100-13.832E,129.2,32.2033,175,163
161,2005/3/3,2:46:00, 10-52.541N,100-14.004E,129.3,32.2009,174,163
162,2005/3/3,2:47:00, 10-52.406N,100-14.173E,129.1,32.1964,169,163
163,2005/3/3,2:48:00, 10-52.270N,100-14.342E,128.2,32.192,171,163
164,2005/3/3,2:49:00, 10-52.135N,100-14.513E,127,32.1901,168,163
165,2005/3/3,2:50:00, 10-52.000N,100-14.684E,129.8,32.1863,174,163
166,2005/3/3,2:51:00, 10-51.867N,100-14.854E,128.4,32.1845,170,163
167,2005/3/3,2:52:00, 10-51.732N,100-15.024E,128.3,32.1831,171,163
168,2005/3/3,2:53:00, 10-51.598N,100-15.194E,129.4,32.1809,169,163
169,2005/3/3,2:54:00, 10-51.464N,100-15.364E,129.6,32.1797,172,163
170,2005/3/3,2:55:00, 10-51.323N,100-15.530E,132,32.1796,170,163
171,2005/3/3,2:56:00, 10-51.172N,100-15.686E,134.4,32.1777,170,163
172,2005/3/3,2:57:00, 10-51.009N,100-15.827E,141.3,32.1766,170,163
173,2005/3/3,2:58:00, 10-50.837N,100-15.958E,140.4,32.1754,172,163
174,2005/3/3,2:59:00, 10-50.674N,100-16.101E,140.3,32.1744,173,163
175,2005/3/3,3:00:00, 10-50.510N,100-16.242E,139.2,32.1752,170,163
176,2005/3/3,3:01:00, 10-50.346N,100-16.383E,137.6,32.1742,173,163
177,2005/3/3,3:02:00, 10-50.196N,100-16.535E,134.6,32.1747,170,163
178,2005/3/3,3:03:00, 10-50.061N,100-16.700E,126.5,32.1737,170,163
179,2005/3/3,3:04:00, 10-49.933N,100-16.870E,127.1,32.1744,170,163
180,2005/3/3,3:05:00, 10-49.803N,100-17.041E,127.5,32.1738,171,163
181,2005/3/3,3:06:00, 10-49.672N,100-17.214E,127.4,32.1735,171,163
182,2005/3/3,3:07:00, 10-49.540N,100-17.388E,128.7,32.1729,173,163
183,2005/3/3,3:08:00, 10-49.426N,100-17.569E,117.1,32.1745,171,163
184,2005/3/3,3:09:00, 10-49.343N,100-17.761E,114.1,32.1744,169,163
185,2005/3/3,3:10:00, 10-49.261N,100-17.959E,111.4,32.1758,168,163
186,2005/3/3,3:11:00, 10-49.180N,100-18.160E,112.4,32.1775,170,163
187,2005/3/3,3:12:00, 10-49.101N,100-18.360E,108.8,32.1788,168,163
188,2005/3/3,3:13:00, 10-49.028N,100-18.565E,109.3,32.1796,169,163
189,2005/3/3,3:14:00, 10-48.958N,100-18.768E,109.4,32.1801,173,163
190,2005/3/3,3:15:00, 10-48.885N,100-18.972E,110.6,32.1806,169,163
191,2005/3/3,3:16:00, 10-48.812N,100-19.175E,110.9,32.1833,172,163
192,2005/3/3,3:17:00, 10-48.739N,100-19.379E,110.4,32.1832,167,163
193,2005/3/3,3:18:00, 10-48.667N,100-19.584E,109.2,32.1851,171,163
194,2005/3/3,3:19:00, 10-48.584N,100-19.784E,114.5,32.1865,173,163
195,2005/3/3,3:20:00, 10-48.498N,100-19.984E,113,32.1877,171,163
196,2005/3/3,3:21:00, 10-48.402N,100-20.178E,116,32.1888,170,163
197,2005/3/3,3:22:00, 10-48.304N,100-20.372E,116.8,32.1901,172,163
198,2005/3/3,3:23:00, 10-48.207N,100-20.566E,117.2,32.1894,170,163
199,2005/3/3,3:24:00, 10-48.111N,100-20.761E,117,32.1885,170,163
200,2005/3/3,3:25:00, 10-48.014N,100-20.955E,116.8,32.1884,172,163
201,2005/3/3,3:26:00, 10-47.917N,100-21.149E,116.2,32.1879,168,163
202,2005/3/3,3:27:00, 10-47.821N,100-21.342E,116.4,32.1877,170,163
203,2005/3/3,3:28:00, 10-47.725N,100-21.536E,117.4,32.1875,172,163
204,2005/3/3,3:29:00, 10-47.629N,100-21.731E,117.8,32.1864,167,163
205,2005/3/3,3:30:00, 10-47.532N,100-21.926E,117.5,32.1868,166,163
206,2005/3/3,3:31:00, 10-47.437N,100-22.120E,117.5,32.1865,170,163
207,2005/3/3,3:32:00, 10-47.340N,100-22.316E,116.4,32.1867,168,163
208,2005/3/3,3:33:00, 10-47.243N,100-22.511E,115.2,32.1857,170,163
209,2005/3/3,3:34:00, 10-47.147N,100-22.705E,115.8,32.1855,166,163
210,2005/3/3,3:35:00, 10-47.051N,100-22.899E,116.2,32.1845,170,163
211,2005/3/3,3:36:00, 10-46.953N,100-23.093E,116.1,32.1834,166,163
212,2005/3/3,3:37:00, 10-46.857N,100-23.289E,117,32.1832,168,163
213,2005/3/3,3:38:00, 10-46.761N,100-23.483E,117.1,32.1832,168,163
214,2005/3/3,3:39:00, 10-46.665N,100-23.681E,116.6,32.1837,170,163
215,2005/3/3,3:40:00, 10-46.569N,100-23.875E,115.1,32.1838,171,163
216,2005/3/3,3:41:00, 10-46.471N,100-24.070E,116,32.1844,168,163
217,2005/3/3,3:42:00, 10-46.376N,100-24.265E,115.8,32.1851,170,163
218,2005/3/3,3:43:00, 10-46.280N,100-24.461E,115.6,32.187,169,163
219,2005/3/3,3:44:00, 10-46.185N,100-24.656E,116.5,32.1875,170,163
220,2005/3/3,3:45:00, 10-46.088N,100-24.852E,116.8,32.1885,169,163
221,2005/3/3,3:46:00, 10-45.992N,100-25.050E,116.3,32.1902,172,163
222,2005/3/3,3:47:00, 10-45.898N,100-25.245E,116.5,32.1918,169,163
223,2005/3/3,3:48:00, 10-45.802N,100-25.443E,117.1,32.1935,169,163
224,2005/3/3,3:49:00, 10-45.708N,100-25.639E,116.6,32.1959,169,163
225,2005/3/3,3:50:00, 10-45.615N,100-25.835E,116.4,32.1984,169,163
226,2005/3/3,3:51:00, 10-45.520N,100-26.032E,115.3,32.2004,169,163
227,2005/3/3,3:52:00, 10-45.424N,100-26.230E,115.7,32.2024,169,163
228,2005/3/3,3:53:00, 10-45.329N,100-26.426E,115.2,32.2038,168,163
229,2005/3/3,3:54:00, 10-45.235N,100-26.623E,115.3,32.2046,169,163
230,2005/3/3,3:55:00, 10-45.140N,100-26.821E,116.8,32.2046,168,163
231,2005/3/3,3:56:00, 10-45.049N,100-27.017E,116,32.204,170,163
232,2005/3/3,3:57:00, 10-44.956N,100-27.215E,116.1,32.2023,167,163
233,2005/3/3,3:58:00, 10-44.863N,100-27.413E,116.7,32.2005,169,163
234,2005/3/3,3:59:00, 10-44.768N,100-27.612E,116.6,32.1982,170,163
235,2005/3/3,4:00:00, 10-44.673N,100-27.809E,116.9,32.1964,171,163
236,2005/3/3,4:01:00, 10-44.576N,100-28.009E,115.9,32.1958,166,163
237,2005/3/3,4:02:00, 10-44.483N,100-28.207E,115.2,32.1928,172,163
238,2005/3/3,4:03:00, 10-44.389N,100-28.404E,116.1,32.1906,171,163
239,2005/3/3,4:04:00, 10-44.295N,100-28.602E,116.5,32.1878,167,163
240,2005/3/3,4:05:00, 10-44.203N,100-28.799E,115.7,32.1854,169,163
241,2005/3/3,4:06:00, 10-44.109N,100-28.996E,114,32.1821,168,163
242,2005/3/3,4:07:00, 10-44.013N,100-29.194E,115.4,32.1788,169,163
243,2005/3/3,4:08:00, 10-43.917N,100-29.393E,116,32.1779,167,163
244,2005/3/3,4:09:00, 10-43.824N,100-29.592E,116.3,32.1765,167,163
245,2005/3/3,4:10:00, 10-43.728N,100-29.791E,116.5,32.1734,166,163
246,2005/3/3,4:11:00, 10-43.631N,100-29.990E,116.2,32.1714,167,163
247,2005/3/3,4:12:00, 10-43.538N,100-30.187E,116.2,32.1695,169,163
248,2005/3/3,4:13:00, 10-43.444N,100-30.384E,115.1,32.1673,171,163
249,2005/3/3,4:14:00, 10-43.350N,100-30.580E,115.6,32.1644,171,163
250,2005/3/3,4:15:00, 10-43.255N,100-30.777E,115.6,32.1611,173,163
251,2005/3/3,4:16:00, 10-43.160N,100-30.974E,115.1,32.1589,168,163
252,2005/3/3,4:17:00, 10-43.065N,100-31.172E,115.8,32.1553,167,163
253,2005/3/3,4:18:00, 10-42.970N,100-31.370E,115.1,32.1545,170,163
254,2005/3/3,4:19:00, 10-42.875N,100-31.566E,115.6,32.1528,168,163
255,2005/3/3,4:20:00, 10-42.780N,100-31.764E,117,32.1506,167,163
256,2005/3/3,4:21:00, 10-42.684N,100-31.960E,117.8,32.1496,170,163
257,2005/3/3,4:22:00, 10-42.588N,100-32.157E,116,32.1484,167,163
258,2005/3/3,4:23:00, 10-42.492N,100-32.353E,117.1,32.1473,169,163
259,2005/3/3,4:24:00, 10-42.397N,100-32.550E,115.4,32.1468,167,163
260,2005/3/3,4:25:00, 10-42.301N,100-32.747E,116.1,32.1465,166,163
261,2005/3/3,4:26:00, 10-42.207N,100-32.942E,115,32.1445,168,163
262,2005/3/3,4:27:00, 10-42.111N,100-33.138E,115.8,32.144,163,163
263,2005/3/3,4:28:00, 10-42.014N,100-33.335E,115.7,32.1429,169,163
264,2005/3/3,4:29:00, 10-41.918N,100-33.530E,116.4,32.1427,169,163
265,2005/3/3,4:30:00, 10-41.820N,100-33.728E,117.1,32.1422,170,163
266,2005/3/3,4:31:00, 10-41.721N,100-33.924E,116.6,32.1408,169,163
267,2005/3/3,4:32:00, 10-41.623N,100-34.120E,117.8,32.1397,174,163
268,2005/3/3,4:33:00, 10-41.526N,100-34.317E,116.8,32.1382,172,163
269,2005/3/3,4:34:00, 10-41.428N,100-34.514E,117.2,32.1394,170,163
270,2005/3/3,4:35:00, 10-41.334N,100-34.709E,115.1,32.1395,171,163
271,2005/3/3,4:36:00, 10-41.238N,100-34.903E,116.1,32.1381,168,163
272,2005/3/3,4:37:00, 10-41.139N,100-35.100E,116.5,32.1392,167,163
273,2005/3/3,4:38:00, 10-41.043N,100-35.295E,117.1,32.1395,168,163
274,2005/3/3,4:39:00, 10-40.945N,100-35.493E,117.5,32.1396,170,163
275,2005/3/3,4:40:00, 10-40.845N,100-35.689E,117.6,32.1409,169,163
276,2005/3/3,4:41:00, 10-40.746N,100-35.884E,117.5,32.1424,172,163
277,2005/3/3,4:42:00, 10-40.647N,100-36.077E,117.4,32.1459,167,163
278,2005/3/3,4:43:00, 10-40.549N,100-36.272E,116.8,32.1503,166,163
279,2005/3/3,4:44:00, 10-40.451N,100-36.468E,116.1,32.1525,168,163
280,2005/3/3,4:45:00, 10-40.355N,100-36.663E,116.2,32.1545,172,163
281,2005/3/3,4:46:00, 10-40.258N,100-36.857E,116.7,32.1595,169,163
282,2005/3/3,4:47:00, 10-40.162N,100-37.050E,115.9,32.1671,170,163
283,2005/3/3,4:48:00, 10-40.066N,100-37.244E,117.8,32.1712,168,163
284,2005/3/3,4:49:00, 10-39.967N,100-37.440E,117.1,32.1718,165,163
285,2005/3/3,4:50:00, 10-39.871N,100-37.635E,116.1,32.1723,167,163
286,2005/3/3,4:51:00, 10-39.773N,100-37.830E,115.1,32.1722,170,163
287,2005/3/3,4:52:00, 10-39.675N,100-38.025E,116.6,32.1729,170,163
288,2005/3/3,4:53:00, 10-39.577N,100-38.219E,116.2,32.1731,174,163
289,2005/3/3,4:54:00, 10-39.479N,100-38.414E,116.3,32.1732,173,163
290,2005/3/3,4:55:00, 10-39.383N,100-38.607E,115.8,32.1726,166,163
291,2005/3/3,4:56:00, 10-39.285N,100-38.802E,116.8,32.1779,170,163
292,2005/3/3,4:57:00, 10-39.189N,100-38.996E,116.7,32.1812,168,163
293,2005/3/3,4:58:00, 10-39.094N,100-39.190E,117.4,32.1832,---,163
294,2005/3/3,4:59:00, 10-38.997N,100-39.385E,115.7,32.1845,176,163
295,2005/3/3,5:00:00, 10-38.900N,100-39.579E,116.1,32.1855,171,163
296,2005/3/3,5:01:00, 10-38.802N,100-39.773E,116.5,32.1882,166,163
297,2005/3/3,5:02:00, 10-38.701N,100-39.967E,116.1,32.1903,---,163
298,2005/3/3,5:03:00, 10-38.601N,100-40.161E,116,32.1912,172,163
299,2005/3/3,5:04:00, 10-38.504N,100-40.354E,117,32.1896,169,163
300,2005/3/3,5:05:00, 10-38.407N,100-40.547E,117.4,32.1884,167,163
301,2005/3/3,5:06:00, 10-38.311N,100-40.740E,117.8,32.1881,172,163
302,2005/3/3,5:07:00, 10-38.214N,100-40.934E,117.4,32.1875,169,163
303,2005/3/3,5:08:00, 10-38.119N,100-41.127E,117.8,32.187,167,163
304,2005/3/3,5:09:00, 10-38.023N,100-41.319E,116.5,32.1868,170,163
305,2005/3/3,5:10:00, 10-37.927N,100-41.511E,115.2,32.1865,171,163
306,2005/3/3,5:11:00, 10-37.828N,100-41.706E,116.3,32.1857,172,163
307,2005/3/3,5:12:00, 10-37.732N,100-41.898E,115.9,32.1854,166,163
308,2005/3/3,5:13:00, 10-37.636N,100-42.092E,116.8,32.184,168,163
309,2005/3/3,5:14:00, 10-37.539N,100-42.286E,117.4,32.1824,169,163
310,2005/3/3,5:15:00, 10-37.443N,100-42.480E,117.1,32.183,173,163
311,2005/3/3,5:16:00, 10-37.346N,100-42.673E,118.1,32.1822,175,163
312,2005/3/3,5:17:00, 10-37.251N,100-42.866E,117.2,32.1812,168,163
313,2005/3/3,5:18:00, 10-37.154N,100-43.061E,116,32.1807,168,163
314,2005/3/3,5:19:00, 10-37.059N,100-43.255E,117,32.18,---,163
315,2005/3/3,5:20:00, 10-36.961N,100-43.448E,116.4,32.1794,173,163
316,2005/3/3,5:21:00, 10-36.866N,100-43.642E,116.6,32.1782,169,163
317,2005/3/3,5:22:00, 10-36.771N,100-43.837E,117,32.1779,170,163
318,2005/3/3,5:23:00, 10-36.676N,100-44.029E,116.6,32.177,171,163
319,2005/3/3,5:24:00, 10-36.580N,100-44.223E,115.9,32.1757,168,163
320,2005/3/3,5:25:00, 10-36.484N,100-44.416E,115.9,32.1764,166,163
321,2005/3/3,5:26:00, 10-36.388N,100-44.611E,115,32.1747,169,163
322,2005/3/3,5:27:00, 10-36.293N,100-44.805E,115,32.1738,168,163
323,2005/3/3,5:28:00, 10-36.197N,100-44.998E,116.4,32.1726,168,163
324,2005/3/3,5:29:00, 10-36.102N,100-45.192E,117.3,32.1717,173,163
325,2005/3/3,5:30:00, 10-36.008N,100-45.385E,117,32.1715,164,163
326,2005/3/3,5:31:00, 10-35.913N,100-45.577E,116.4,32.1711,169,163
327,2005/3/3,5:32:00, 10-35.817N,100-45.771E,115.9,32.1703,164,163
328,2005/3/3,5:33:00, 10-35.723N,100-45.965E,115.5,32.1686,169,163
329,2005/3/3,5:34:00, 10-35.628N,100-46.160E,118.1,32.168,168,163
330,2005/3/3,5:35:00, 10-35.532N,100-46.355E,117.4,32.168,172,163
331,2005/3/3,5:36:00, 10-35.437N,100-46.549E,117.4,32.1673,169,163
332,2005/3/3,5:37:00, 10-35.343N,100-46.742E,116.3,32.1677,169,163
333,2005/3/3,5:38:00, 10-35.250N,100-46.936E,116.5,32.1667,170,163
334,2005/3/3,5:39:00, 10-35.152N,100-47.129E,116.1,32.1654,163,163
335,2005/3/3,5:40:00, 10-35.057N,100-47.322E,115.8,32.1654,167,163
336,2005/3/3,5:41:00, 10-34.964N,100-47.515E,116.3,32.1646,171,163
337,2005/3/3,5:42:00, 10-34.870N,100-47.709E,117.6,32.1643,170,163
338,2005/3/3,5:43:00, 10-34.776N,100-47.902E,116.6,32.1635,170,163
339,2005/3/3,5:44:00, 10-34.681N,100-48.095E,115.9,32.1637,172,163
340,2005/3/3,5:45:00, 10-34.587N,100-48.287E,115.5,32.1627,171,163
341,2005/3/3,5:46:00, 10-34.494N,100-48.481E,115.6,32.163,172,163
342,2005/3/3,5:47:00, 10-34.401N,100-48.674E,115.9,32.1631,169,163
343,2005/3/3,5:48:00, 10-34.308N,100-48.867E,116.4,32.1634,176,163
344,2005/3/3,5:49:00, 10-34.214N,100-49.060E,117.2,32.1635,164,163
345,2005/3/3,5:50:00, 10-34.120N,100-49.253E,117.7,32.1638,172,163
346,2005/3/3,5:51:00, 10-34.027N,100-49.446E,115.9,32.1641,167,163
347,2005/3/3,5:52:00, 10-33.932N,100-49.639E,116.8,32.1641,168,163
348,2005/3/3,5:53:00, 10-33.836N,100-49.831E,114.8,32.165,165,163
349,2005/3/3,5:54:00, 10-33.741N,100-50.023E,115.7,32.1645,168,163
350,2005/3/3,5:55:00, 10-33.645N,100-50.214E,116.5,32.1652,165,163
351,2005/3/3,5:56:00, 10-33.551N,100-50.408E,116.7,32.1647,166,163
352,2005/3/3,5:57:00, 10-33.465N,100-50.603E,115.6,32.1655,177,163
353,2005/3/3,5:58:00, 10-33.370N,100-50.795E,116.4,32.1658,---,163
354,2005/3/3,5:59:00, 10-33.275N,100-50.985E,114.2,32.1664,165,163
355,2005/3/3,6:00:00, 10-33.181N,100-51.179E,116.7,32.1664,166,163
356,2005/3/3,6:01:00, 10-33.087N,100-51.371E,115.3,32.1668,167,163
357,2005/3/3,6:02:00, 10-33.000N,100-51.562E,114.2,32.1674,165,163
358,2005/3/3,6:03:00, 10-32.902N,100-51.754E,108.8,32.1682,176,163
359,2005/3/3,6:04:00, 10-32.808N,100-51.946E,117.8,32.1692,172,163
360,2005/3/3,6:05:00, 10-32.717N,100-52.139E,116.7,32.1684,169,163
361,2005/3/3,6:06:00, 10-32.624N,100-52.333E,119,32.1655,170,163
362,2005/3/3,6:07:00, 10-32.524N,100-52.523E,115.8,32.1617,167,163
363,2005/3/3,6:08:00, 10-32.429N,100-52.716E,117.4,32.1547,165,163
364,2005/3/3,6:09:00, 10-32.333N,100-52.909E,116.5,32.1475,166,163
365,2005/3/3,6:10:00, 10-32.236N,100-53.100E,116.9,32.1424,168,163
366,2005/3/3,6:11:00, 10-32.139N,100-53.291E,116.1,32.138,168,163
367,2005/3/3,6:12:00, 10-32.048N,100-53.484E,119.7,32.1341,168,163
368,2005/3/3,6:13:00, 10-31.952N,100-53.676E,116.5,32.1316,165,163
369,2005/3/3,6:14:00, 10-31.857N,100-53.868E,117.1,32.1271,167,163
370,2005/3/3,6:15:00, 10-31.759N,100-54.059E,117.7,32.1199,169,163
371,2005/3/3,6:16:00, 10-31.660N,100-54.250E,117.7,32.1169,174,163
372,2005/3/3,6:17:00, 10-31.568N,100-54.443E,115.5,32.1132,169,163
373,2005/3/3,6:18:00, 10-31.472N,100-54.635E,116.5,32.1065,166,163
374,2005/3/3,6:19:00, 10-31.373N,100-54.826E,117.1,32.102,169,163
375,2005/3/3,6:20:00, 10-31.273N,100-55.016E,115.1,32.0988,166,163
376,2005/3/3,6:21:00, 10-31.177N,100-55.209E,116.4,32.0965,175,163
377,2005/3/3,6:22:00, 10-31.082N,100-55.402E,116.2,32.096,173,163
378,2005/3/3,6:23:00, 10-30.986N,100-55.594E,116,32.0945,168,163
379,2005/3/3,6:24:00, 10-30.891N,100-55.786E,117.9,32.0944,167,163
380,2005/3/3,6:25:00, 10-30.795N,100-55.978E,117.2,32.0935,168,163
381,2005/3/3,6:26:00, 10-30.699N,100-56.170E,115.8,32.0921,166,163
382,2005/3/3,6:27:00, 10-30.603N,100-56.362E,115.6,32.0915,166,163
383,2005/3/3,6:28:00, 10-30.509N,100-56.556E,116.7,32.0912,171,163
384,2005/3/3,6:29:00, 10-30.412N,100-56.748E,117.3,32.0902,171,163
385,2005/3/3,6:30:00, 10-30.317N,100-56.941E,117.3,32.0894,167,163
386,2005/3/3,6:31:00, 10-30.221N,100-57.133E,117.9,32.0872,171,163
387,2005/3/3,6:32:00, 10-30.127N,100-57.325E,117.3,32.0855,169,163
388,2005/3/3,6:33:00, 10-30.031N,100-57.518E,115.9,32.0841,171,163
389,2005/3/3,6:34:00, 10-29.935N,100-57.710E,115.1,32.0834,168,163
390,2005/3/3,6:35:00, 10-29.839N,100-57.902E,115.1,32.0826,170,163
391,2005/3/3,6:36:00, 10-29.742N,100-58.093E,116,32.0822,165,163
392,2005/3/3,6:37:00, 10-29.648N,100-58.284E,117.1,32.0814,168,163
393,2005/3/3,6:38:00, 10-29.550N,100-58.477E,117.1,32.0807,164,163
394,2005/3/3,6:39:00, 10-29.448N,100-58.667E,117.7,32.0791,---,163
395,2005/3/3,6:40:00, 10-29.348N,100-58.857E,117.6,32.079,174,163
396,2005/3/3,6:41:00, 10-29.248N,100-59.046E,117.8,32.0789,168,163
397,2005/3/3,6:42:00, 10-29.147N,100-59.235E,118.9,32.0783,166,163
398,2005/3/3,6:43:00, 10-29.048N,100-59.427E,118.6,32.0783,167,163
399,2005/3/3,6:44:00, 10-28.948N,100-59.617E,117.9,32.0775,167,163
400,2005/3/3,6:45:00, 10-28.846N,100-59.805E,119.7,32.0778,176,163
401,2005/3/3,6:46:00, 10-28.758N,100-59.999E,113.7,32.0781,169,163
402,2005/3/3,6:47:00, 10-28.671N,101-00.196E,113.9,32.0785,171,163
403,2005/3/3,6:48:00, 10-28.581N,101-00.391E,114,32.0786,173,163
404,2005/3/3,6:49:00, 10-28.492N,101-00.586E,113.5,32.0785,166,163
405,2005/3/3,6:50:00, 10-28.405N,101-00.783E,114.1,32.079,---,163
406,2005/3/3,6:51:00, 10-28.314N,101-00.981E,116.9,32.0791,171,163
407,2005/3/3,6:52:00, 10-28.220N,101-01.174E,117.5,32.0795,164,163
408,2005/3/3,6:53:00, 10-28.124N,101-01.365E,117.1,32.0792,170,163
409,2005/3/3,6:54:00, 10-28.027N,101-01.559E,117.7,32.0801,175,163
410,2005/3/3,6:55:00, 10-27.925N,101-01.747E,116.6,32.0801,---,163
411,2005/3/3,6:56:00, 10-27.824N,101-01.938E,117.6,32.0805,182,163
412,2005/3/3,6:57:00, 10-27.724N,101-02.130E,117,32.0809,166,163
413,2005/3/3,6:58:00, 10-27.624N,101-02.321E,119.2,32.0813,169,163
414,2005/3/3,6:59:00, 10-27.521N,101-02.512E,118.2,32.0819,164,163
415,2005/3/3,7:00:00, 10-27.421N,101-02.702E,118,32.0814,182,163
416,2005/3/3,7:01:00, 10-27.320N,101-02.893E,118.8,32.0825,192,163
417,2005/3/3,7:02:00, 10-27.219N,101-03.083E,119.1,32.0824,175,163
418,2005/3/3,7:03:00, 10-27.118N,101-03.271E,117.5,32.0824,171,163
419,2005/3/3,7:04:00, 10-27.017N,101-03.462E,117.9,32.0821,167,163
420,2005/3/3,7:05:00, 10-26.918N,101-03.652E,118,32.082,168,163
421,2005/3/3,7:06:00, 10-26.816N,101-03.842E,117.3,32.0819,166,163
422,2005/3/3,7:07:00, 10-26.715N,101-04.032E,119.8,32.0816,172,163
423,2005/3/3,7:08:00, 10-26.616N,101-04.223E,119.1,32.0821,178,163
424,2005/3/3,7:09:00, 10-26.514N,101-04.416E,116,32.082,167,163
425,2005/3/3,7:10:00, 10-26.413N,101-04.604E,120.2,32.0826,164,163
426,2005/3/3,7:11:00, 10-26.310N,101-04.796E,118.1,32.0824,169,163
427,2005/3/3,7:12:00, 10-26.211N,101-04.985E,117.8,32.0822,167,163
428,2005/3/3,7:13:00, 10-26.110N,101-05.175E,118.7,32.0817,170,163
429,2005/3/3,7:14:00, 10-26.011N,101-05.365E,118.2,32.0816,---,163
430,2005/3/3,7:15:00, 10-25.910N,101-05.556E,117.6,32.0824,170,163
431,2005/3/3,7:16:00, 10-25.809N,101-05.747E,116.1,32.0829,172,163
432,2005/3/3,7:17:00, 10-25.708N,101-05.936E,119.3,32.0841,168,163